#timestamp,LO_Frequency,Hit,Temp,Hum 
1479060015.6,286046929.0,N,0.0,0.0
1479060035.4,286046927.4,N,0.0,0.0
1479060055.2,286046921.4,N,0.0,0.0
1479060075.1,286046926.2,N,0.0,0.0
1479060076.0,286046926.2,N,0.0,0.0
1479060095.8,286046926.3,N,0.0,0.0
1479060115.7,286046926.4,N,0.0,0.0
1479060135.5,286046925.4,N,0.0,0.0
1479060155.3,286046924.3,N,0.0,0.0
1479060175.2,286046922.5,N,0.0,0.0
1479060195.9,286046920.3,N,0.0,0.0
1479060215.7,286046920.8,N,0.0,0.0
1479060235.6,286046917.1,N,0.0,0.0
1479060255.4,286046916.2,N,0.0,0.0
1479060275.3,286046915.7,N,0.0,0.0
1479060295.1,286046913.6,N,0.0,0.0
1479060296.0,286046913.6,N,0.0,0.0
1479060315.8,286046914.4,N,0.0,0.0
1479060335.7,286046914.0,N,0.0,0.0
1479060355.5,286046911.7,N,0.0,0.0
1479060375.3,286046913.1,N,0.0,0.0
1479060395.2,286046911.6,N,0.0,0.0
1479060415.0,286046909.5,N,0.0,0.0
1479060415.9,286046909.5,N,0.0,0.0
1479060435.8,286046909.8,N,0.0,0.0
1479060455.6,286046910.1,N,0.0,0.0
1479060475.4,286046913.5,N,0.0,0.0
1479060495.3,286046912.2,N,0.0,0.0
1479060515.1,286046914.8,N,0.0,0.0
1479060535.8,286046913.6,N,0.0,0.0
1479060555.7,286046913.8,N,0.0,0.0
1479060575.5,286046911.7,N,0.0,0.0
1479060595.3,286046912.3,N,0.0,0.0
1479060615.2,286046911.8,N,0.0,0.0
1479060635.0,286046913.5,N,0.0,0.0
1479060635.9,286046913.5,N,0.0,0.0
1479060655.8,286046915.2,N,0.0,0.0
1479060675.6,286046915.5,N,0.0,0.0
1479060695.4,286046917.5,N,0.0,0.0
1479060715.3,286046917.5,N,0.0,0.0
1479060735.1,286046916.6,N,0.0,0.0
1479060755.9,286046916.6,N,0.0,0.0
1479060775.7,286046921.1,N,0.0,0.0
1479060795.5,286046920.5,N,0.0,0.0
1479060815.4,286046921.2,N,0.0,0.0
1479060835.2,286046918.3,N,0.0,0.0
1479060855.0,286046918.1,N,0.0,0.0
1479060855.9,286046918.1,N,0.0,0.0
1479060875.8,286046921.7,N,0.0,0.0
1479060895.6,286046922.7,N,0.0,0.0
1479060915.5,286046920.8,N,0.0,0.0
1479060935.3,286046920.2,N,0.0,0.0
1479060955.1,286046920.2,N,0.0,0.0
1479060975.9,286046922.5,N,0.0,0.0
1479060995.7,286046922.6,N,0.0,0.0
1479061015.5,286046924.4,N,0.0,0.0
1479061035.4,286046922.8,N,0.0,0.0
1479061055.2,286046922.7,N,0.0,0.0
1479061075.0,286046922.6,N,0.0,0.0
1479061076.0,286046922.6,N,0.0,0.0
1479061095.8,286046921.8,N,0.0,0.0
1479061115.6,286046920.9,N,0.0,0.0
1479061135.5,286046918.5,N,0.0,0.0
1479061155.3,286046922.5,N,0.0,0.0
1479061175.1,286046922.8,N,0.0,0.0
1479061195.9,286046921.2,N,0.0,0.0
1479061215.7,286046918.2,N,0.0,0.0
1479061235.6,286046920.8,N,0.0,0.0
1479061255.4,286046919.8,N,0.0,0.0
1479061275.2,286046922.6,N,0.0,0.0
1479061295.1,286046922.4,N,0.0,0.0
1479061296.0,286046922.4,N,0.0,0.0
1479061315.8,286046922.6,N,0.0,0.0
1479061335.6,286046922.6,N,0.0,0.0
1479061355.5,286046920.0,N,0.0,0.0
1479061375.3,286046922.1,N,0.0,0.0
1479061395.2,286046924.4,N,0.0,0.0
1479061415.9,286046924.3,N,0.0,0.0
1479061435.7,286046923.3,N,0.0,0.0
1479061455.6,286046921.3,N,0.0,0.0
1479061475.4,286046921.3,N,0.0,0.0
1479061495.2,286046921.8,N,0.0,0.0
1479061515.1,286046922.0,N,0.0,0.0
1479061516.0,286046922.0,N,0.0,0.0
1479061535.8,286046921.3,N,0.0,0.0
1479061555.7,286046921.4,N,0.0,0.0
1479061575.5,286046921.4,N,0.0,0.0
1479061595.3,286046922.1,N,0.0,0.0
1479061615.2,286046924.1,N,0.0,0.0
1479061635.9,286046925.4,N,0.0,0.0
1479061655.7,286046923.7,N,0.0,0.0
1479061675.6,286046924.2,N,0.0,0.0
1479061695.4,286046921.6,N,0.0,0.0
1479061715.3,286046921.6,N,0.0,0.0
1479061735.1,286046924.1,N,0.0,0.0
1479061736.0,286046924.1,N,0.0,0.0
1479061755.8,286046925.0,N,0.0,0.0
1479061775.7,286046925.3,N,0.0,0.0
1479061795.5,286046926.0,N,0.0,0.0
1479061815.3,286046925.2,N,0.0,0.0
1479061835.2,286046926.4,N,0.0,0.0
1479061855.0,286046925.6,N,0.0,0.0
1479061855.9,286046925.6,N,0.0,0.0
1479061875.8,286046924.8,N,0.0,0.0
1479061895.6,286046924.7,N,0.0,0.0
1479061915.4,286046926.0,N,0.0,0.0
1479061935.3,286046923.3,N,0.0,0.0
1479061955.1,286046924.5,N,0.0,0.0
1479061975.9,286046926.0,N,0.0,0.0
1479061995.7,286046923.7,N,0.0,0.0
1479062015.5,286046923.3,N,0.0,0.0
1479062035.4,286046923.3,N,0.0,0.0
1479062055.2,286046924.6,N,0.0,0.0
1479062075.0,286046925.8,N,0.0,0.0
1479062075.9,286046925.8,N,0.0,0.0
1479062095.8,286046925.7,N,0.0,0.0
1479062115.6,286046923.3,N,0.0,0.0
1479062135.5,286046923.2,N,0.0,0.0
1479062155.3,286046925.0,N,0.0,0.0
1479062175.1,286046927.6,N,0.0,0.0
1479062195.9,286046926.9,N,0.0,0.0
1479062215.7,286046928.4,N,0.0,0.0
1479062235.5,286046926.4,N,0.0,0.0
1479062255.4,286046928.6,N,0.0,0.0
1479062275.2,286046928.6,N,0.0,0.0
1479062295.0,286046928.1,N,0.0,0.0
1479062295.9,286046928.1,N,0.0,0.0
1479062315.8,286046930.3,N,0.0,0.0
1479062335.6,286046928.5,N,0.0,0.0
1479062355.5,286046926.6,N,0.0,0.0
1479062375.3,286046927.2,N,0.0,0.0
1479062395.1,286046924.7,N,0.0,0.0
1479062415.9,286046924.9,N,0.0,0.0
1479062435.7,286046925.5,N,0.0,0.0
1479062455.5,286046923.1,N,0.0,0.0
1479062475.4,286046925.8,N,0.0,0.0
1479062495.2,286046923.4,N,0.0,0.0
1479062515.1,286046925.0,N,0.0,0.0
1479062516.0,286046925.0,N,0.0,0.0
1479062535.8,286046925.3,N,0.0,0.0
1479062555.6,286046927.2,N,0.0,0.0
1479062575.5,286046927.3,N,0.0,0.0
1479062595.3,286046930.7,N,0.0,0.0
1479062615.1,286046930.7,N,0.0,0.0
1479062635.9,286046927.7,N,0.0,0.0
1479062655.7,286046926.5,N,0.0,0.0
1479062675.6,286046924.9,N,0.0,0.0
1479062695.4,286046925.2,N,0.0,0.0
1479062715.2,286046927.2,N,0.0,0.0
1479062735.1,286046923.4,N,0.0,0.0
1479062736.0,286046923.4,N,0.0,0.0
1479062755.8,286046921.9,N,0.0,0.0
1479062775.6,286046922.8,N,0.0,0.0
1479062795.5,286046920.8,N,0.0,0.0
1479062815.3,286046921.0,N,0.0,0.0
1479062835.2,286046920.3,N,0.0,0.0
1479062855.9,286046922.2,N,0.0,0.0
1479062875.7,286046920.3,N,0.0,0.0
1479062895.6,286046919.8,N,0.0,0.0
1479062915.4,286046919.9,N,0.0,0.0
1479062935.2,286046922.8,N,0.0,0.0
1479062955.1,286046921.1,N,0.0,0.0
1479062956.0,286046921.1,N,0.0,0.0
1479062975.8,286046921.1,N,0.0,0.0
1479062995.7,286046922.6,N,0.0,0.0
1479063015.5,286046924.2,N,0.0,0.0
1479063035.3,286046925.5,N,0.0,0.0
1479063055.2,286046925.8,N,0.0,0.0
1479063075.0,286046925.0,N,0.0,0.0
1479063075.9,286046925.0,N,0.0,0.0
1479063095.7,286046926.3,N,0.0,0.0
1479063115.6,286046927.6,N,0.0,0.0
1479063135.4,286046924.5,N,0.0,0.0
1479063155.3,286046927.2,N,0.0,0.0
1479063175.1,286046925.4,N,0.0,0.0
1479063176.0,286046925.4,N,0.0,0.0
1479063195.8,286046923.9,N,0.0,0.0
1479063215.7,286046921.3,N,0.0,0.0
1479063235.5,286046924.4,N,0.0,0.0
1479063255.3,286046924.3,N,0.0,0.0
1479063275.2,286046921.9,N,0.0,0.0
1479063295.0,286046921.6,N,0.0,0.0
1479063295.9,286046921.6,N,0.0,0.0
1479063315.8,286046921.5,N,0.0,0.0
1479063335.6,286046922.2,N,0.0,0.0
1479063355.4,286046919.7,N,0.0,0.0
1479063375.3,286046921.5,N,0.0,0.0
1479063395.1,286046920.4,N,0.0,0.0
1479063415.8,286046919.9,N,0.0,0.0
1479063435.7,286046920.1,N,0.0,0.0
1479063455.5,286046922.2,N,0.0,0.0
1479063475.4,286046922.4,N,0.0,0.0
1479063495.2,286046921.6,N,0.0,0.0
1479063515.0,286046925.9,N,0.0,0.0
1479063515.9,286046925.9,N,0.0,0.0
1479063535.8,286046923.3,N,0.0,0.0
1479063555.6,286046923.3,N,0.0,0.0
1479063575.4,286046925.8,N,0.0,0.0
1479063595.3,286046927.1,N,0.0,0.0
